Battle Creek, MI

6:18 AM EST on January 24, 2017 (GMT -0500)
Kellogg

Weather History for KBTL - May, 2013

Change the Weather History Date:

Tuesday, May 21, 2013

  Actual Average Record
Temperature  
Mean Temperature 72 °F 60 °F  
Max Temperature 80 °F 72 °F 83 °F (2014)
Min Temperature 63 °F 47 °F 37 °F (1997)
Degree Days  
Heating Degree Days 0 7  
Month to date heating degree days 89 192  
Since 1 July heating degree days 6316 6581  
Cooling Degree Days 7 1  
Month to date cooling degree days 48 15  
Year to date cooling degree days 48 22  
Growing Degree Days 22 (Base 50)    
Moisture  
Dew Point 62 °F    
Average Humidity 74    
Maximum Humidity 93    
Minimum Humidity 54    
Precipitation  
Precipitation 0.25 in 0.13 in 1.30 in (2004)
Month to date precipitation 0.67 2.50  
Year to date precipitation 11.81 10.21  
Sea Level Pressure  
Sea Level Pressure 29.77 in    
Wind  
Wind Speed 11 mph (SW)    
Max Wind Speed 23 mph    
Max Gust Speed 29 mph    
Visibility 9 miles    
Events Rain , Thunderstorm    
T = Trace of Precipitation, MM = Missing Value Source: NWS Daily Summary

Daily Weather History Graph

Daily Weather History Graph

Search for Another Location

Airport or City:

Trip Planner

Search our weather history database for the weather conditions in past years. The results will help you decide how hot, cold, wet, or windy it might be!

Date:

Astronomy

May. 21, 2013 Rise Set
Actual Time 6:13 AM EDT 9:01 PM EDT
Civil Twilight 5:41 AM EDT 9:34 PM EDT
Nautical Twilight 4:59 AM EDT 10:16 PM EDT
Astronomical Twilight 4:12 AM EDT 11:04 PM EDT
Moon 5:10 PM EDT (5/21) 3:46 AM EDT (5/21)
Length of Visible Light 15h 53m
Length of Day
14h 47m
Waxing Gibbous, 84% of the Moon is Illuminated
May 21
Waxing Gibbous
May 25
Full
May 31
Last Quarter
Jun 8
New
Jun 16
First Quarter

Hourly Weather History & Observations

Time (EDT) Temp. Heat Index Dew Point Humidity Pressure Visibility Wind Dir Wind Speed Gust Speed Precip Events Conditions
12:53 AM 73.9 °F - 64.0 °F 71% 29.79 in 10.0 mi South 8.1 mph - N/A   Clear
1:53 AM 73.0 °F - 64.0 °F 73% 29.79 in 10.0 mi South 10.4 mph - N/A   Clear
2:53 AM 73.0 °F - 64.0 °F 73% 29.77 in 10.0 mi SSW 11.5 mph - N/A   Clear
3:53 AM 73.0 °F - 59.0 °F 61% 29.77 in 10.0 mi WNW 13.8 mph 23.0 mph N/A   Mostly Cloudy
3:59 AM 71.6 °F - 57.2 °F 60% 29.78 in 10.0 mi NW 15.0 mph - N/A   Overcast
4:20 AM 69.8 °F - 57.2 °F 64% 29.79 in 10.0 mi WNW 9.2 mph - N/A   Overcast
4:42 AM 66.2 °F - 60.8 °F 83% 29.83 in 5.0 mi West 20.7 mph 27.6 mph 0.06 in Rain , Thunderstorm Light Thunderstorms and Rain
4:53 AM 63.0 °F - 60.1 °F 90% 29.82 in 3.0 mi West 10.4 mph - 0.12 in Rain , Thunderstorm Heavy Thunderstorms and Rain
5:40 AM 64.4 °F - 60.8 °F 88% 29.78 in 6.0 mi East 5.8 mph - 0.12 in Rain Rain
5:53 AM 63.0 °F - 61.0 °F 93% 29.75 in 10.0 mi East 8.1 mph - 0.12 in Rain Light Rain
6:53 AM 63.0 °F - 61.0 °F 93% 29.77 in 10.0 mi SSW 4.6 mph - 0.01 in   Scattered Clouds
7:51 AM 64.4 °F - 62.6 °F 94% 29.79 in 10.0 mi South 9.2 mph - N/A   Partly Cloudy
7:53 AM 64.9 °F - 62.1 °F 90% 29.77 in 10.0 mi South 10.4 mph - N/A   Partly Cloudy
8:53 AM 68.0 °F - 62.1 °F 81% 29.78 in 10.0 mi SSW 13.8 mph - N/A   Clear
9:53 AM 68.0 °F - 61.0 °F 78% 29.80 in 10.0 mi SSW 13.8 mph - N/A   Mostly Cloudy
10:53 AM 72.0 °F - 63.0 °F 73% 29.78 in 10.0 mi SSW 17.3 mph 20.7 mph N/A   Overcast
11:53 AM 73.9 °F - 63.0 °F 68% 29.78 in 10.0 mi SSW 11.5 mph - N/A   Mostly Cloudy
12:53 PM 75.0 °F - 62.1 °F 64% 29.77 in 10.0 mi SSW 15.0 mph - N/A   Partly Cloudy
1:53 PM 75.9 °F - 61.0 °F 60% 29.76 in 10.0 mi SSW 18.4 mph 24.2 mph N/A   Partly Cloudy
2:53 PM 77.0 °F - 62.1 °F 60% 29.75 in 10.0 mi SSW 17.3 mph 23.0 mph N/A   Scattered Clouds
3:53 PM 78.1 °F - 62.1 °F 58% 29.76 in 10.0 mi WSW 17.3 mph 23.0 mph N/A   Mostly Cloudy
4:53 PM 80.1 °F 81.2 °F 62.1 °F 54% 29.75 in 10.0 mi SW 15.0 mph - N/A   Mostly Cloudy
5:53 PM 80.1 °F 81.2 °F 62.1 °F 54% 29.73 in 10.0 mi SW 12.7 mph - N/A   Partly Cloudy
6:53 PM 80.1 °F 81.2 °F 62.1 °F 54% 29.73 in 10.0 mi SSW 10.4 mph - N/A   Clear
7:53 PM 78.1 °F - 61.0 °F 56% 29.72 in 10.0 mi SW 9.2 mph - N/A   Clear
8:53 PM 73.9 °F - 63.0 °F 68% 29.72 in 10.0 mi SSW 5.8 mph - N/A   Clear
9:53 PM 73.0 °F - 62.1 °F 68% 29.74 in 10.0 mi South 3.5 mph - N/A   Clear
10:53 PM 68.0 °F - 62.1 °F 81% 29.75 in 10.0 mi Calm Calm - N/A   Clear
11:53 PM 66.0 °F - 62.1 °F 87% 29.74 in 10.0 mi Calm Calm - N/A   Scattered Clouds